Time,TemperatureF,DewpointF,PressureIn,WindDirection,WindDirectionDegrees,WindSpeedMPH,WindSpeedGustMPH,Humidity,HourlyPrecipIn,Conditions,Clouds,dailyrainin,SolarRadiationWatts/m^2,SoftwareType,DateUTC
2013-05-27 00:11:00,49.0,42.0,-100.00,ESE,123,2.0,5.0,79,-99.99,,,0.00,0.580000,,2013-05-27 06:11:00,
2013-05-27 01:11:00,48.0,43.0,-100.00,SSE,147,3.0,4.0,84,-99.99,,,0.00,0.350000,,2013-05-27 07:11:00,
2013-05-27 02:11:00,51.0,44.0,-100.00,South,178,5.0,10.0,77,-99.99,,,0.00,0.350000,,2013-05-27 08:11:00,
2013-05-27 03:11:00,51.0,42.0,-100.00,South,187,8.0,15.0,72,-99.99,,,0.00,1.050000,,2013-05-27 09:11:00,
2013-05-27 04:12:00,50.0,42.0,-100.00,SSW,200,10.0,18.0,76,-99.99,,,0.00,0.230000,,2013-05-27 10:12:00,
2013-05-27 05:11:00,49.0,39.0,-100.00,SSW,204,11.0,19.0,70,-99.99,,,0.00,0.120000,,2013-05-27 11:11:00,
2013-05-27 06:11:00,47.0,37.0,-100.00,SSW,213,13.0,23.0,69,-99.99,,,0.00,0.000000,,2013-05-27 12:11:00,
2013-05-27 07:11:00,45.0,38.0,-100.00,SSW,211,14.0,23.0,76,-99.99,,,0.00,7.790000,,2013-05-27 13:11:00,
2013-05-27 08:11:00,47.0,39.0,-100.00,SSW,201,14.0,23.0,73,-99.99,,,0.00,173.630005,,2013-05-27 14:11:00,
2013-05-27 09:11:00,48.0,40.0,-100.00,SSW,210,15.0,24.0,73,-99.99,,,0.00,90.769997,,2013-05-27 15:11:00,
2013-05-27 10:12:00,50.0,41.0,-100.00,SW,217,16.0,24.0,69,-99.99,,,0.00,381.200012,,2013-05-27 16:12:00,
2013-05-27 11:11:00,52.0,40.0,-100.00,SW,215,17.0,25.0,62,-99.99,,,0.00,811.559998,,2013-05-27 17:11:00,
2013-05-27 13:11:00,56.0,39.0,-100.00,SSW,204,14.0,21.0,52,-99.99,,,0.00,1059.930054,,2013-05-27 19:11:00,
2013-05-27 14:11:00,58.0,38.0,-100.00,SSW,196,12.0,20.0,46,-99.99,,,0.00,1056.439941,,2013-05-27 20:11:00,
2013-05-27 15:12:00,59.0,37.0,-100.00,SSW,205,9.0,17.0,42,-99.99,,,0.00,908.840027,,2013-05-27 21:12:00,
2013-05-27 16:12:00,61.0,37.0,-100.00,SSW,202,11.0,18.0,41,-99.99,,,0.00,1007.630005,,2013-05-27 22:12:00,
2013-05-27 17:12:00,62.0,37.0,-100.00,SSW,197,11.0,19.0,39,-99.99,,,0.00,718.700012,,2013-05-27 23:12:00,
2013-05-27 18:11:00,62.0,36.0,-100.00,SSW,212,11.0,16.0,38,-99.99,,,0.00,651.299988,,2013-05-28 00:11:00,
2013-05-27 19:11:00,61.0,35.0,-100.00,SSW,195,10.0,16.0,37,-99.99,,,0.00,267.309998,,2013-05-28 01:11:00,
2013-05-27 20:11:00,60.0,29.0,-100.00,SSW,202,11.0,18.0,30,-99.99,,,0.00,129.589996,,2013-05-28 02:11:00,
2013-05-27 21:11:00,58.0,30.0,-100.00,South,188,6.0,11.0,33,-99.99,,,0.00,41.029999,,2013-05-28 03:11:00,
2013-05-27 22:12:00,55.0,28.0,-100.00,SSW,201,5.0,9.0,35,-99.99,,,0.00,0.930000,,2013-05-28 04:12:00,
2013-05-27 23:12:00,56.0,29.0,-100.00,SW,236,5.0,8.0,36,-99.99,,,0.00,0.120000,,2013-05-28 05:12:00,